Preview of NWS' New Version of Forecast
This preview is not operational and should not be used for support decisions.

Regional Weather Roundup (RWR)

Issued by National Weather Service (NWS)

                            
000
ASUS44 KMEG 210910
RWRTN 
TENNESSEE HOURLY STATE WEATHER ROUNDUP
NATIONAL WEATHER SERVICE MEMPHIS TN
400 AM CDT SAT SEP 21 2019

TNZ002-004-019-021-049-052-054-088>092-211000-
WEST TENNESSEE
  
CITY           SKY/WX    TMP DP  RH WIND       PRES   REMARKS
MEMPHIS INTL   FAIR      72  63  73 S6        30.15S                  
NWS MEMPHIS      N/A     70 N/A N/A MISG        N/A                   
JACKSON        FAIR      65  62  90 CALM      30.19S                  
DYERSBURG      FAIR      67  64  90 SE5       30.18S                  
SOMERVILLE     CLEAR     68  63  83 S3        30.16S                  
COVINGTON      CLEAR     64  61  88 CALM      30.16S                  
UNION CITY       N/A     66  63  88 CALM      30.16S                  
BOLIVAR        CLEAR     63  61  94 CALM      30.17F                  
PARIS          CLEAR     66  61  82 CALM      30.19S                  
HUNTINGDON     PTCLDY    68  63  83 CALM      30.19S                  
LEXINGTON      CLEAR     63  63 100 CALM      30.19F                  
SELMER         CLEAR     63  61  94 CALM      30.19S                  
SAVANNAH       CLEAR     64  61  88 S3        30.19S                  
$$

TNZ008-025-027-028-033-062-065-066-211000-
NORTH MIDDLE TENNESSEE
  
CITY           SKY/WX    TMP DP  RH WIND       PRES   REMARKS
NASHVILLE      FAIR      69  57  65 S5        30.25R                  
DICKSON        SUNNY     70  57  64 S7        30.22S                  
PORTLAND       CLEAR     68  61  77 S7        30.24R                  
CLARKSVILLE    FAIR      65  62  90 SE5       30.22R                  
LEBANON        MOSUNNY   68  57  68 SW5       30.22S                  
SMYRNA         FAIR      65  60  84 CALM      30.26R                  
MURFREESBORO   MOSUNNY   68  57  68 SE3       30.22S                  
LIVINGSTON       N/A     68  57  68 SW6       30.27R                  
CROSSVILLE     FAIR      60  55  83 CALM      30.31S                  
ROCKWOOD       SUNNY     63  57  82 SW5       30.30R                  
$$

TNZ061-075-076-078-094-096-097-211000-
SOUTH MIDDLE TENNESSEE
  
CITY           SKY/WX    TMP DP  RH WIND       PRES   REMARKS
LAWRENCEBURG   SUNNY     63  55  77 CALM      30.24R                  
LEWISBURG      SUNNY     59  57  94 CALM      30.24R                  
FAYETTEVILLE   CLEAR     64  57  77 CALM      30.25R                  
TULLAHOMA      CLEAR     59  55  88 CALM      30.26R                  
WINCHESTER     CLEAR     61  55  82 CALM      30.26R                  
MCMINNVILLE    CLEAR     61  57  88 CALM      30.26R                  
COLUMBIA       CLEAR     64  63  94 CALM      30.22R                  
SHELBYVILLE    CLEAR     61  57  88 CALM      30.25R                  
$$

TNZ017-018-042-046-047-211000-
NORTHEAST TENNESSEE
  
CITY           SKY/WX    TMP DP  RH WIND       PRES   REMARKS
TRI CITIES     MOCLDY    59  57  93 CALM      30.31R                  
ELIZABETHTON   FAIR      61  59  94 NE5       30.31R                  
GREENEVILLE    CLOUDY    66  59  77 CALM      30.30R                  
$$

TNZ012-013-036-069-073-074-211000-
CENTRAL EAST TENNESSEE
  
CITY           SKY/WX    TMP DP  RH WIND       PRES   REMARKS
KNOXVILLE      FAIR      67  59  75 CALM      30.27R                  
OAK RIDGE      FAIR      66  60  81 CALM      30.29S                  
DOWNTOWN KNOXV FOG       63  63 100 CALM      30.28R VSB 1            
GATLINBURG     CLEAR     64  63  94 CALM      30.28R                  
MORRISTOWN     MOCLDY    63  61  94 CALM      30.28R                  
JACKSBORO      CLEAR     61  59  94 CALM      30.31S                  
$$

TNZ083-085-099-211000-
SOUTHEAST TENNESSEE
  
CITY           SKY/WX    TMP DP  RH WIND       PRES   REMARKS
CHATTANOOGA    FAIR      64  59  83 CALM      30.28R                  
$$

SKY/WX REPORTED AS FAIR MEANS FEW OR NO CLOUDS BELOW
12 THOUSAND FEET.